O'Neill, NE

3:24 AM CDT on May 25, 2017 (GMT -0500)
The O'Neill Municipal-Baker

Weather History for KONL - January, 2014

Change the Weather History Date:

Friday, January 3, 2014

  Actual Average Record
Temperature  
Mean Temperature 30 °F -  
Max Temperature 45 °F 29 °F 59 °F (2003)
Min Temperature 14 °F 6 °F -22 °F (1968)
Degree Days  
Heating Degree Days 36    
Moisture  
Dew Point 22 °F    
Average Humidity 72    
Maximum Humidity 87    
Minimum Humidity 51    
Precipitation  
Precipitation 0.02 in - - ()
Sea Level Pressure  
Sea Level Pressure 29.66 in    
Wind  
Wind Speed 16 mph (SSW)    
Max Wind Speed 21 mph    
Max Gust Speed 28 mph    
Visibility 10 miles    
Events Rain    
Averages and records for this station are not official NWS values.
T = Trace of Precipitation, MM = Missing Value Source: NWS Daily Summary

Daily Weather History Graph

Daily Weather History Graph

Search for Another Location

Airport or City:

Trip Planner

Search our weather history database for the weather conditions in past years. The results will help you decide how hot, cold, wet, or windy it might be!

Date:

Astronomy

Jan. 03, 2014 Rise Set
Actual Time 8:04 AM CST 5:14 PM CST
Civil Twilight 7:32 AM CST 5:46 PM CST
Nautical Twilight 6:57 AM CST 6:21 PM CST
Astronomical Twilight 6:23 AM CST 6:55 PM CST
Moon 9:27 AM CST (1/3) 8:29 PM CST (1/3)
Length of Visible Light 10h 13m
Length of Day
9h 09m
Waxing Crescent, 8% of the Moon is Illuminated
Jan 3
Waxing Crescent
Jan 7
First Quarter
Jan 15
Full
Jan 23
Last Quarter
Jan 30
New

Hourly Weather History & Observations

Time (CST) Temp. Windchill Dew Point Humidity Pressure Visibility Wind Dir Wind Speed Gust Speed Precip Events Conditions
12:15 AM 14.7 °F -2.0 °F 11.3 °F 86% 30.10 in 7.0 mi South 18.4 mph 26.5 mph N/A   Overcast
12:35 AM 14.9 °F -2.3 °F 11.7 °F 87% 30.07 in 7.0 mi South 19.6 mph 27.6 mph N/A   Overcast
12:55 AM 15.4 °F -1.1 °F 12.0 °F 86% 30.07 in 7.0 mi South 18.4 mph 25.3 mph N/A   Overcast
1:15 AM 15.8 °F -0.6 °F 12.2 °F 86% 30.05 in 7.0 mi South 18.4 mph 25.3 mph N/A   Overcast
1:35 AM 15.8 °F -0.6 °F 12.2 °F 86% 30.04 in 7.0 mi South 18.4 mph 26.5 mph N/A   Overcast
1:55 AM 16.2 °F 1.3 °F 12.7 °F 86% 30.04 in 5.0 mi South 15.0 mph 23.0 mph N/A   Overcast
2:15 AM 16.2 °F 0.8 °F 12.2 °F 84% 30.02 in 7.0 mi South 16.1 mph 23.0 mph N/A   Overcast
2:35 AM 16.0 °F 0.1 °F 12.0 °F 84% 30.00 in 10.0 mi South 17.3 mph 23.0 mph N/A   Mostly Cloudy
2:55 AM 16.2 °F 1.9 °F 12.0 °F 84% 29.99 in 10.0 mi South 13.8 mph 23.0 mph N/A   Scattered Clouds
3:15 AM 15.8 °F -0.2 °F 11.7 °F 84% 29.98 in 10.0 mi South 17.3 mph - N/A   Scattered Clouds
3:35 AM 15.8 °F -0.6 °F 11.7 °F 84% 29.97 in 10.0 mi South 18.4 mph - N/A   Scattered Clouds
3:55 AM 15.8 °F -1.1 °F 11.7 °F 84% 29.96 in 10.0 mi South 19.6 mph 23.0 mph N/A   Scattered Clouds
4:15 AM 15.8 °F -0.6 °F 12.0 °F 85% 29.94 in 10.0 mi South 18.4 mph 24.2 mph N/A   Overcast
4:35 AM 16.2 °F 1.3 °F 12.2 °F 84% 29.92 in 10.0 mi South 15.0 mph 25.3 mph N/A   Overcast
4:55 AM 16.2 °F 0.3 °F 12.2 °F 84% 29.90 in 10.0 mi South 17.3 mph 25.3 mph N/A   Overcast
5:15 AM 15.8 °F -0.2 °F 12.2 °F 86% 29.89 in 10.0 mi South 17.3 mph 23.0 mph N/A   Scattered Clouds
5:35 AM 15.8 °F -0.2 °F 12.2 °F 86% 29.88 in 10.0 mi South 17.3 mph 23.0 mph N/A   Scattered Clouds
5:55 AM 15.8 °F -1.5 °F 12.2 °F 86% 29.85 in 10.0 mi South 20.7 mph 25.3 mph N/A   Scattered Clouds
6:15 AM 15.8 °F -1.5 °F 12.2 °F 86% 29.82 in 10.0 mi South 20.7 mph 26.5 mph N/A   Scattered Clouds
6:35 AM 17.1 °F 0.6 °F 13.5 °F 86% 29.81 in 10.0 mi South 19.6 mph 24.2 mph N/A   Scattered Clouds
6:55 AM 17.4 °F 2.4 °F 13.5 °F 84% 29.80 in 10.0 mi South 16.1 mph 21.9 mph N/A   Clear
7:15 AM 17.6 °F 3.2 °F 13.8 °F 85% 29.79 in 10.0 mi South 15.0 mph - N/A   Clear
7:35 AM 17.8 °F 1.5 °F 13.8 °F 84% 29.77 in 10.0 mi South 19.6 mph 25.3 mph N/A   Clear
7:55 AM 18.0 °F 1.7 °F 14.0 °F 84% 29.75 in 10.0 mi South 19.6 mph 26.5 mph N/A   Clear
8:15 AM 18.1 °F 2.9 °F 14.0 °F 84% 29.74 in 10.0 mi South 17.3 mph 25.3 mph N/A   Clear
8:35 AM 18.5 °F 3.3 °F 14.7 °F 85% 29.74 in 10.0 mi South 17.3 mph - N/A   Clear
8:55 AM 19.2 °F 5.3 °F 15.1 °F 84% 29.73 in 10.0 mi South 15.0 mph - N/A   Clear
9:15 AM 20.7 °F 6.1 °F 16.2 °F 83% 29.72 in 10.0 mi South 17.3 mph 21.9 mph N/A   Clear
9:35 AM 22.6 °F 9.2 °F 17.2 °F 80% 29.71 in 10.0 mi South 16.1 mph 19.6 mph N/A   Clear
9:55 AM 24.3 °F 10.0 °F 18.3 °F 78% 29.70 in 10.0 mi SSW 19.6 mph 23.0 mph N/A   Clear
10:15 AM 25.5 °F 11.3 °F 18.9 °F 76% 29.68 in 10.0 mi SSW 20.7 mph 26.5 mph N/A   Clear
10:35 AM 27.3 °F 15.6 °F 19.9 °F 74% 29.66 in 10.0 mi South 15.0 mph 23.0 mph N/A   Clear
10:55 AM 28.6 °F 17.2 °F 20.3 °F 71% 29.64 in 10.0 mi SSW 15.0 mph 25.3 mph N/A   Clear
11:15 AM 29.8 °F 18.0 °F 21.0 °F 70% 29.63 in 10.0 mi SSW 17.3 mph 23.0 mph N/A   Clear
11:35 AM 31.5 °F 19.4 °F 21.7 °F 67% 29.60 in 10.0 mi SSW 19.6 mph 26.5 mph N/A   Clear
11:55 AM 32.0 °F 21.2 °F 22.5 °F 68% 29.58 in 10.0 mi SSW 16.1 mph 25.3 mph N/A   Clear
12:15 PM 34.0 °F 22.7 °F 23.4 °F 65% 29.55 in 10.0 mi SSW 19.6 mph 24.2 mph N/A   Clear
12:35 PM 35.6 °F 26.2 °F 24.3 °F 63% 29.54 in 10.0 mi SSW 15.0 mph - N/A   Clear
12:55 PM 37.8 °F 30.7 °F 25.5 °F 61% 29.53 in 10.0 mi SSW 10.4 mph - 0.02 in   Clear
1:15 PM 39.7 °F 30.9 °F 26.1 °F 58% 29.51 in 10.0 mi SSW 17.3 mph - N/A   Clear
1:35 PM 39.6 °F 31.0 °F 26.4 °F 59% 29.48 in 10.0 mi SSW 16.1 mph 24.2 mph N/A   Clear
1:55 PM 40.8 °F 32.0 °F 27.3 °F 59% 29.47 in 10.0 mi SSW 18.4 mph - N/A   Clear
2:15 PM 43.2 °F 35.9 °F 27.5 °F 54% 29.46 in 10.0 mi SSW 15.0 mph 24.2 mph N/A   Clear
2:35 PM 45.1 °F 38.4 °F 28.6 °F 52% 29.45 in 10.0 mi SSW 15.0 mph 23.0 mph N/A   Clear
2:55 PM 45.7 °F 39.1 °F 28.2 °F 51% 29.44 in 10.0 mi South 15.0 mph 19.6 mph N/A   Clear
3:15 PM 43.9 °F 36.8 °F 28.2 °F 54% 29.42 in 10.0 mi South 15.0 mph 24.2 mph N/A   Clear
3:35 PM 44.6 °F 37.8 °F 28.4 °F 53% 29.42 in 10.0 mi SSW 15.0 mph 21.9 mph N/A   Clear
3:55 PM 43.7 °F 36.9 °F 28.2 °F 54% 29.42 in 10.0 mi SSW 13.8 mph - N/A   Clear
4:15 PM 43.7 °F 37.3 °F 28.4 °F 55% 29.41 in 10.0 mi South 12.7 mph - N/A   Clear
4:35 PM 43.0 °F 37.2 °F 28.4 °F 56% 29.41 in 10.0 mi South 10.4 mph 19.6 mph N/A   Clear
4:55 PM 41.2 °F 35.5 °F 28.4 °F 60% 29.41 in 10.0 mi South 9.2 mph - N/A   Clear
5:15 PM 40.6 °F 33.8 °F 28.4 °F 62% 29.41 in 10.0 mi SSW 11.5 mph - N/A   Clear
5:35 PM 39.6 °F 34.0 °F 28.2 °F 64% 29.41 in 10.0 mi SSW 8.1 mph - N/A   Clear
5:55 PM 39.7 °F 34.3 °F 28.0 °F 63% 29.41 in 10.0 mi SSW 8.1 mph - N/A   Clear
6:15 PM 39.4 °F 35.2 °F 27.9 °F 63% 29.42 in 10.0 mi WSW 5.8 mph - N/A   Clear
6:35 PM 39.4 °F 31.8 °F 28.2 °F 64% 29.42 in 10.0 mi SW 12.7 mph - N/A   Clear
6:55 PM 39.2 °F 32.0 °F 28.2 °F 65% 29.43 in 10.0 mi SW 11.5 mph - N/A   Clear
7:15 PM 37.9 °F 31.5 °F 28.2 °F 68% 29.45 in 10.0 mi SW 9.2 mph - N/A   Clear
7:35 PM 43.3 °F 36.1 °F 29.7 °F 59% 29.45 in 10.0 mi WNW 15.0 mph 19.6 mph N/A   Clear
7:55 PM 43.9 °F 36.5 °F 29.3 °F 57% 29.47 in 10.0 mi NW 16.1 mph - N/A   Clear
8:15 PM 42.4 °F 35.0 °F 30.0 °F 61% 29.49 in 10.0 mi NW 15.0 mph 20.7 mph N/A   Scattered Clouds
8:35 PM 42.8 °F 35.8 °F 31.5 °F 64% 29.51 in 10.0 mi NW 13.8 mph 21.9 mph N/A   Mostly Cloudy
8:55 PM 43.0 °F 36.4 °F 31.1 °F 63% 29.52 in 10.0 mi NW 12.7 mph - N/A   Overcast
9:15 PM 42.1 °F 35.2 °F 33.8 °F 72% 29.52 in 10.0 mi NW 12.7 mph 20.7 mph N/A   Drizzle
9:35 PM 41.2 °F 36.0 °F 33.8 °F 75% 29.52 in 10.0 mi NW 8.1 mph - N/A Rain Light Rain
9:55 PM 41.5 °F 35.9 °F 33.4 °F 73% 29.54 in 10.0 mi WNW 9.2 mph - N/A   Overcast
10:15 PM 42.3 °F 37.3 °F 33.4 °F 71% 29.55 in 10.0 mi West 8.1 mph - N/A   Overcast
10:35 PM 41.9 °F 36.3 °F 33.4 °F 72% 29.56 in 10.0 mi WNW 9.2 mph - N/A   Overcast
10:55 PM 42.1 °F 36.1 °F 33.4 °F 71% 29.57 in 10.0 mi WNW 10.4 mph - N/A   Overcast
11:15 PM 42.8 °F 36.2 °F 33.3 °F 69% 29.58 in 10.0 mi WNW 12.7 mph - N/A   Overcast
11:35 PM 42.8 °F 37.0 °F 32.9 °F 68% 29.58 in 10.0 mi WNW 10.4 mph - N/A   Overcast
11:55 PM 42.4 °F 37.5 °F 32.2 °F 67% 29.59 in 10.0 mi WNW 8.1 mph - N/A   Overcast